Location: The Rolnick Observatory
(41.1711°N, 73.3275°W)
Time: 09:00:25
(UTC-04:00)

Envisat - Pass Details

Date: 17 February 2019
Orbit: 764 x 766 km, 98.1° (Epoch: 19 October)

Event Time Altitude Azimuth Distance (km) Brightness Sun altitude
Rises 06:08:19 0° 32° (NNE) 3,238 6.6 -7.7°
Reaches altitude 10° 06:11:40 10° 56° (NE) 2,306 6.2 -7.1°
Maximum altitude 06:14:32 15° 90° (E) 1,971 6.6 -6.5°
Drops below altitude 10° 06:17:23 10° 125° (SE) 2,297 6.7 -6.0°
Sets 06:20:42 0° 148° (SSE) 3,217 6.9 -5.4°
